[[{"header":{"parameterUnit":"m.s-1","parameterCategory":1,"la1":30.2991,"la2":30.254,"lo1":-89.0895,"lo2":-89.0444,"dy":0.0017,"dx":0.0017,"nx":28,"ny":28,"refTime":"2025-08-30T21:00:00:Z","depth":0,"parameterNumber":2,"parameterNumberName":"U-component_of_WINDS"},"data":[0,0,0,0,0,0,0,0,0,0,0,0,0,0,0,0,0,0,0,0,0,0,0,0,0,0,0,0,0,0,0,0,0,0,0,0,0,0,0,0,0,0,0,0,0,0,0,0,0,0,0,0,0,0,0,0,0,0,-0.5899,-0.5898,0,-0.5861,-0.586,-0.586,-0.5821,-0.582,-0.582,-0.5819,-0.578,-0.578,-0.5779,0,0,0,0,0,0,0,0,0,0,0,0,0,-0.5936,-0.5936,-0.5899,-0.5898,-0.5898,-0.5861,-0.586,-0.586,-0.5821,-0.582,-0.582,-0.5819,-0.578,-0.578,-0.5779,0,0,0,0,0,0,0,0,0,0,0,0,0,-0.5912,-0.5936,-0.5899,-0.5874,-0.5871,-0.5861,-0.586,-0.586,-0.5821,-0.582,-0.5819,-0.5819,-0.578,-0.578,-0.5779,-0.579,0,0,-0.5776,-0.5776,0,0,0,0,0,0,0,0,-0.5913,-0.591,-0.5878,-0.5876,-0.5873,-0.5845,-0.5859,-0.5836,-0.5821,-0.584,-0.5819,-0.5818,-0.5802,-0.58,-0.5794,-0.5788,-0.5787,-0.5776,-0.5776,-0.5776,-0.5775,0,0,0,0,0,0,0,-0.5915,-0.5912,-0.5884,-0.5878,-0.5874,-0.5864,-0.586,-0.5855,-0.5826,-0.5838,-0.5835,-0.5831,-0.5801,-0.5795,-0.5793,-0.5786,-0.5776,-0.5776,-0.5775,-0.5775,-0.5787,-0.5788,0,0,0,0,0,0,-0.592,-0.5913,-0.5885,-0.5883,-0.5891,-0.5864,-0.5859,-0.5854,-0.5826,-0.5821,-0.5832,-0.583,-0.5797,-0.5794,-0.5792,-0.5803,-0.5776,-0.5775,-0.5774,-0.5787,-0.5787,-0.5788,0,0,0,0,0,0,-0.5921,-0.5918,-0.5886,-0.5897,-0.5892,-0.5865,-0.5859,-0.5854,-0.5849,-0.5821,-0.5816,-0.5832,-0.5796,-0.5793,-0.5791,-0.5801,-0.5774,-0.5774,-0.5786,-0.5787,-0.5788,-0.5826,0,0,0,0,0,0,-0.5923,-0.5919,-0.5923,-0.5897,-0.5892,-0.5887,-0.586,-0.5854,-0.5847,-0.5844,-0.582,-0.5815,-0.5795,-0.5792,-0.579,-0.5799,-0.5773,-0.5785,-0.5786,-0.5788,-0.5824,-0.5828,-0.5832,0,0,0,0,0,-0.5924,-0.5935,-0.5923,-0.592,-0.5897,-0.5887,-0.5884,-0.5861,-0.5848,-0.5852,-0.5835,-0.5816,-0.58,-0.5792,-0.5789,-0.5799,-0.5784,-0.5786,-0.5787,-0.5822,-0.5828,-0.5832,0,0,0,0,0,0,-0.5962,-0.5931,-0.5918,-0.5921,-0.5907,-0.5881,-0.5885,-0.5868,-0.5857,-0.5854,-0.5826,-0.5821,-0.5823,-0.581,-0.5802,-0.5808,-0.5789,-0.5791,-0.5816,-0.5822,-0.5826,-0.5829,-0.5772,0,0,0,0,0,-0.5971,-0.5967,-0.5939,-0.5945,-0.5939,-0.5913,-0.5908,-0.5892,-0.5876,-0.587,-0.5852,-0.5838,-0.5829,-0.5825,-0.5816,-0.5822,-0.5816,-0.5827,-0.5831,-0.5835,-0.5836,-0.5839,-0.5843,-0.5794,-0.5794,-0.5794,0,0,-0.599,-0.5972,-0.5971,-0.5952,-0.5939,-0.5935,-0.5908,-0.5905,-0.5901,-0.5869,-0.5867,-0.5853,-0.5835,-0.5837,-0.5837,-0.5827,-0.5848,-0.5837,-0.584,-0.584,-0.5841,-0.5846,-0.585,-0.5796,-0.5795,-0.5795,0,0,-0.6021,-0.6007,-0.601,-0.5998,-0.5979,-0.5962,-0.5962,-0.5938,-0.5928,-0.5925,-0.5901,-0.5896,-0.5883,-0.5871,-0.5863,-0.5889,-0.5871,-0.5887,-0.591,-0.5913,-0.5916,-0.592,-0.5929,-0.5933,-0.5889,-0.5889,-0.5889,0,-0.6046,-0.6039,-0.6014,-0.6012,-0.6004,-0.5975,-0.5978,-0.5967,-0.5946,-0.5942,-0.593,-0.5913,-0.5898,-0.5898,-0.5904,-0.5898,-0.5899,-0.589,-0.5918,-0.5921,-0.5924,-0.5933,-0.5936,-0.5891,-0.589,-0.589,-0.589,0,-0.607,-0.6066,-0.607,-0.6051,-0.6044,-0.6045,-0.602,-0.6016,-0.6,-0.5984,-0.5981,-0.5962,-0.5949,-0.5948,-0.5932,-0.5944,-0.5939,-0.5923,-0.5904,-0.5931,-0.5939,-0.5942,-0.5894,-0.5893,-0.5892,-0.5892,0,0,-0.6125,-0.6092,-0.6094,-0.6085,-0.6062,-0.6058,-0.6057,-0.6044,-0.6041,-0.6028,-0.6026,-0.6015,-0.6,-0.5992,-0.5974,-0.5976,-0.5999,-0.596,-0.5959,-0.5969,-0.6012,-0.6024,-0.6029,-0.5987,-0.5987,-0.5988,-0.6014,0,-0.6153,-0.615,-0.6127,-0.6131,-0.6126,-0.6098,-0.6097,-0.6083,-0.6068,-0.6061,-0.6044,-0.6037,-0.6018,-0.6013,-0.6014,-0.5996,-0.6007,-0.5994,-0.5985,-0.5985,-0.5991,-0.6033,-0.6046,-0.6072,-0.6017,-0.6017,-0.6017,0,-0.6185,-0.6174,-0.6177,-0.6153,-0.6151,-0.615,-0.6137,-0.6131,-0.6114,-0.6103,-0.6093,-0.6073,-0.607,-0.6052,-0.6047,-0.6039,-0.6034,-0.6024,-0.6025,-0.6024,-0.6004,-0.6034,-0.6079,-0.6083,-0.6022,-0.6022,-0.6021,0,-0.6225,-0.6211,-0.6211,-0.6204,-0.6177,-0.6177,-0.6166,-0.6148,-0.6141,-0.6129,-0.6125,-0.6113,-0.6106,-0.6097,-0.6074,-0.6063,-0.6073,-0.6052,-0.6064,-0.6064,-0.6068,-0.6068,-0.6114,-0.6063,-0.6063,-0.6063,-0.6063,0,-0.6259,-0.6262,-0.6229,-0.6229,-0.6231,-0.6205,-0.6208,-0.6194,-0.6178,-0.6175,-0.6149,-0.6147,-0.6117,-0.6111,-0.6093,-0.6092,-0.6089,-0.608,-0.6076,-0.6083,-0.6084,-0.608,-0.6078,-0.6064,-0.6064,-0.6064,-0.6064,0,-0.6305,-0.6283,-0.6281,-0.6255,-0.6249,-0.6252,-0.623,-0.6229,-0.6212,-0.6208,-0.6205,-0.6179,-0.6171,-0.6147,-0.6132,-0.612,-0.6125,-0.6116,-0.6131,-0.6128,-0.6141,-0.6141,-0.6186,-0.6191,-0.6138,-0.6138,-0.6139,0,-0.6328,-0.633,-0.6305,-0.6301,-0.6291,-0.6284,-0.6278,-0.6252,-0.6246,-0.6227,-0.6228,-0.6218,-0.6208,-0.6195,-0.6175,-0.6164,-0.6154,-0.6171,-0.6152,-0.616,-0.6155,-0.6156,-0.6156,-0.6176,-0.6176,-0.6177,-0.6177,0,-0.6372,-0.6361,-0.6353,-0.6341,-0.6334,-0.6323,-0.631,-0.6309,-0.6279,-0.6274,-0.6265,-0.6258,-0.6243,-0.6233,-0.6218,-0.6206,-0.6187,-0.6183,-0.6185,-0.6193,-0.6202,-0.6198,-0.6143,-0.6182,-0.6182,-0.6182,-0.6181,-0.6181,-0.6408,-0.6408,-0.639,-0.6382,-0.637,-0.6359,-0.6357,-0.634,-0.6332,-0.6318,-0.6303,-0.6296,-0.6278,-0.6257,-0.6246,-0.624,-0.623,-0.6233,-0.6234,-0.6235,-0.6239,-0.6203,-0.6237,-0.6237,-0.6237,-0.6236,-0.6236,0,-0.6451,-0.6438,-0.643,-0.6414,-0.6408,-0.639,-0.6375,-0.6371,-0.6365,-0.6351,-0.6342,-0.6331,-0.6321,-0.63,-0.6288,-0.6287,-0.6278,-0.6285,-0.6285,-0.6283,-0.6248,-0.6248,-0.6293,-0.6293,-0.6293,-0.6293,-0.6293,-0.6293,-0.6472,-0.6472,-0.6459,-0.6452,-0.6439,-0.6432,-0.6426,-0.6415,-0.6404,-0.6394,-0.6385,-0.6371,-0.6354,-0.634,-0.633,-0.6324,-0.6321,-0.6331,-0.6322,-0.629,-0.6285,-0.628,-0.628,-0.633,-0.6331,-0.6357,-0.6358,-0.6358]},{"header":{"parameterUnit":"m.s-1","parameterCategory":1,"la1":30.2991,"la2":30.254,"lo1":-89.0895,"lo2":-89.0444,"dy":0.0017,"dx":0.0017,"nx":28,"ny":28,"refTime":"2025-08-30T21:00:00:Z","depth":0,"parameterNumber":3,"parameterNumberName":"V-component_of_WINDS"},"data":[0,0,0,0,0,0,0,0,0,0,0,0,0,0,0,0,0,0,0,0,0,0,0,0,0,0,0,0,0,0,0,0,0,0,0,0,0,0,0,0,0,0,0,0,0,0,0,0,0,0,0,0,0,0,0,0,0,0,-2.8884,-2.8884,0,-2.888,-2.888,-2.8879,-2.8864,-2.8864,-2.8864,-2.8863,-2.8855,-2.8855,-2.8855,0,0,0,0,0,0,0,0,0,0,0,0,0,-2.8875,-2.8875,-2.8884,-2.8884,-2.8883,-2.888,-2.888,-2.8879,-2.8864,-2.8864,-2.8863,-2.8863,-2.8855,-2.8855,-2.8855,0,0,0,0,0,0,0,0,0,0,0,0,0,-2.8876,-2.8875,-2.8884,-2.8876,-2.8875,-2.888,-2.888,-2.8879,-2.8864,-2.8864,-2.8863,-2.8863,-2.8855,-2.8855,-2.8855,-2.8866,0,0,-2.8855,-2.8855,0,0,0,0,0,0,0,0,-2.8876,-2.8876,-2.8877,-2.8876,-2.8875,-2.8872,-2.8873,-2.8875,-2.8865,-2.8868,-2.8863,-2.8863,-2.8861,-2.886,-2.886,-2.8865,-2.8865,-2.8855,-2.8855,-2.8855,-2.8855,0,0,0,0,0,0,0,-2.8876,-2.8876,-2.8882,-2.8877,-2.8876,-2.8871,-2.8871,-2.8874,-2.8867,-2.8868,-2.8867,-2.8867,-2.886,-2.886,-2.886,-2.8865,-2.8855,-2.8855,-2.8855,-2.8855,-2.888,-2.8881,0,0,0,0,0,0,-2.8877,-2.8876,-2.8882,-2.8882,-2.8874,-2.8872,-2.8871,-2.8873,-2.8867,-2.8866,-2.8867,-2.8866,-2.886,-2.886,-2.886,-2.8874,-2.8855,-2.8855,-2.8856,-2.888,-2.888,-2.8881,0,0,0,0,0,0,-2.8877,-2.8878,-2.8882,-2.8879,-2.8879,-2.8872,-2.8875,-2.8874,-2.8874,-2.8867,-2.8865,-2.8869,-2.886,-2.8859,-2.8865,-2.8873,-2.8856,-2.8856,-2.8879,-2.888,-2.8881,-2.8901,0,0,0,0,0,0,-2.8877,-2.8878,-2.8882,-2.8879,-2.8879,-2.8889,-2.8876,-2.8874,-2.8875,-2.8873,-2.8868,-2.8866,-2.8859,-2.8865,-2.8865,-2.8873,-2.8856,-2.8878,-2.8879,-2.8881,-2.8899,-2.8902,-2.8904,0,0,0,0,0,-2.8877,-2.8887,-2.8883,-2.8884,-2.8885,-2.8889,-2.8889,-2.8882,-2.8875,-2.888,-2.8875,-2.8866,-2.8872,-2.8866,-2.8866,-2.8874,-2.8878,-2.8879,-2.888,-2.8898,-2.8901,-2.8904,0,0,0,0,0,0,-2.8889,-2.8886,-2.8882,-2.8891,-2.8891,-2.8887,-2.8892,-2.8886,-2.8886,-2.8884,-2.8875,-2.8873,-2.8881,-2.8877,-2.887,-2.8885,-2.8874,-2.8875,-2.8887,-2.889,-2.8893,-2.8894,-2.8856,0,0,0,0,0,-2.8893,-2.8898,-2.8894,-2.8903,-2.8903,-2.8898,-2.8899,-2.8894,-2.8893,-2.8892,-2.8888,-2.8886,-2.8887,-2.8888,-2.8889,-2.8898,-2.8898,-2.8904,-2.8907,-2.8909,-2.891,-2.8917,-2.892,-2.8885,-2.8885,-2.8885,0,0,-2.8901,-2.89,-2.8903,-2.8906,-2.8905,-2.891,-2.8898,-2.8902,-2.8906,-2.8892,-2.8898,-2.8895,-2.8892,-2.8901,-2.8904,-2.8898,-2.892,-2.891,-2.8912,-2.8913,-2.8919,-2.8922,-2.8925,-2.8886,-2.8886,-2.8886,0,0,-2.8919,-2.8918,-2.8926,-2.8926,-2.8926,-2.8923,-2.8925,-2.8922,-2.892,-2.8927,-2.8917,-2.892,-2.8923,-2.8922,-2.8921,-2.8941,-2.8933,-2.8941,-2.8955,-2.8962,-2.8965,-2.8967,-2.8976,-2.8979,-2.8943,-2.8943,-2.8943,0,-2.8928,-2.8936,-2.8931,-2.8937,-2.8939,-2.893,-2.8938,-2.8938,-2.8937,-2.8938,-2.8932,-2.8936,-2.8933,-2.8942,-2.8947,-2.8947,-2.8949,-2.8942,-2.8965,-2.8967,-2.8969,-2.8978,-2.8981,-2.8944,-2.8944,-2.8944,-2.8943,0,-2.8949,-2.8955,-2.8961,-2.8964,-2.8966,-2.8973,-2.8968,-2.8971,-2.8966,-2.8964,-2.8971,-2.8967,-2.8968,-2.897,-2.8964,-2.8978,-2.8975,-2.8967,-2.8956,-2.8974,-2.8982,-2.8984,-2.8945,-2.8945,-2.8945,-2.8944,0,0,-2.8973,-2.8974,-2.8977,-2.8979,-2.8979,-2.8983,-2.899,-2.8993,-2.8996,-2.8996,-2.9002,-2.9006,-2.8999,-2.8999,-2.8993,-2.8999,-2.9017,-2.899,-2.899,-2.8997,-2.9034,-2.9042,-2.9045,-2.9012,-2.9012,-2.9013,-2.9035,0,-2.8991,-2.9005,-2.9001,-2.9015,-2.9021,-2.9013,-2.9019,-2.902,-2.9017,-2.9021,-2.9018,-2.9022,-2.9012,-2.9012,-2.9017,-2.9014,-2.9025,-2.9012,-2.9017,-2.9018,-2.902,-2.9049,-2.9056,-2.9077,-2.9038,-2.9038,-2.9039,0,-2.9013,-2.9017,-2.9033,-2.9034,-2.9037,-2.9043,-2.9046,-2.905,-2.9051,-2.9049,-2.905,-2.9044,-2.905,-2.9039,-2.9049,-2.904,-2.9042,-2.9041,-2.9041,-2.9042,-2.903,-2.9052,-2.9084,-2.9088,-2.9043,-2.9043,-2.9042,0,-2.9031,-2.904,-2.9051,-2.9053,-2.9055,-2.906,-2.906,-2.906,-2.9063,-2.9066,-2.9068,-2.907,-2.9072,-2.9074,-2.9068,-2.906,-2.9079,-2.9066,-2.9078,-2.9078,-2.9083,-2.9083,-2.9117,-2.9082,-2.9082,-2.9082,-2.9082,0,-2.9052,-2.9062,-2.906,-2.9067,-2.9078,-2.9073,-2.9084,-2.9084,-2.9085,-2.9091,-2.9083,-2.9088,-2.908,-2.9085,-2.908,-2.909,-2.909,-2.9089,-2.9088,-2.909,-2.9091,-2.9092,-2.9091,-2.9082,-2.9082,-2.9082,-2.9082,0,-2.9074,-2.9073,-2.9085,-2.9087,-2.9088,-2.9096,-2.9097,-2.9103,-2.9101,-2.9109,-2.9111,-2.9107,-2.9113,-2.9108,-2.9112,-2.9109,-2.9122,-2.9118,-2.9123,-2.9122,-2.9135,-2.9134,-2.9172,-2.9177,-2.9138,-2.9138,-2.9138,0,-2.9088,-2.9096,-2.91,-2.9105,-2.9107,-2.9114,-2.9118,-2.9114,-2.9118,-2.9121,-2.9127,-2.9132,-2.9137,-2.9146,-2.9143,-2.9147,-2.9143,-2.9156,-2.9144,-2.9147,-2.9146,-2.9146,-2.9147,-2.9159,-2.916,-2.916,-2.916,0,-2.9114,-2.9114,-2.912,-2.9128,-2.9134,-2.9138,-2.9142,-2.9146,-2.9142,-2.9147,-2.9155,-2.9158,-2.9165,-2.917,-2.9174,-2.9173,-2.9166,-2.9164,-2.9168,-2.9171,-2.9174,-2.9174,-2.9132,-2.9164,-2.9163,-2.9163,-2.9163,-2.9163,-2.9133,-2.9141,-2.9146,-2.9154,-2.9158,-2.9162,-2.9169,-2.917,-2.9176,-2.9183,-2.9179,-2.9188,-2.919,-2.9194,-2.9195,-2.9201,-2.9195,-2.9199,-2.9201,-2.9202,-2.9205,-2.9173,-2.9201,-2.9201,-2.9201,-2.9201,-2.9201,0,-2.9159,-2.9163,-2.9171,-2.9179,-2.9186,-2.9181,-2.9186,-2.9192,-2.92,-2.9204,-2.9209,-2.9218,-2.9224,-2.9223,-2.9228,-2.9234,-2.9231,-2.9235,-2.9235,-2.9236,-2.9209,-2.9206,-2.9238,-2.9238,-2.9238,-2.9238,-2.9238,-2.9238,-2.9174,-2.9188,-2.9189,-2.9205,-2.9207,-2.9218,-2.9222,-2.9226,-2.9229,-2.924,-2.9247,-2.9246,-2.9248,-2.9254,-2.926,-2.9259,-2.9262,-2.9268,-2.9266,-2.9241,-2.9237,-2.9234,-2.9232,-2.9268,-2.9268,-2.9293,-2.9294,-2.9294]}]]